[ hide orbit diagram ]
For accurate long-term ephemerides, please instead use our Horizons system.This orbit viewer was implemented using two-body methods, and hence should not be used for determining accurate long-term trajectories (over several years or decades) or planetary encounter circumstances.
Orbital Elements at Epoch 2459000.5 (2020-May-31.0) TDB
Reference: JPL 15 (heliocentric ecliptic J2000)
Element | Value | Uncertainty (1-sigma) | Units |
e | .1631328682780823 | 5.2981e-08 | |
a | 2.344747070538434 | 1.2168e-08 | au |
q | 1.962241755534868 | 1.1998e-07 | au |
i | 2.464429852243727 | 5.3424e-06 | deg |
node | 20.33855499663231 | 0.00010232 | deg |
peri | 201.4460905685668 | 0.0001034 | deg |
M | 111.478602318096 | 1.393e-05 | deg |
tp | 2458594.401445114769 (2019-Apr-20.90144511) | 5.0558e-05 | TDB |
period | 1311.421893696918 3.59 | 1.0209e-05 2.795e-08 | d yr |
n | .2745112017194975 | 2.1369e-09 | deg/d |
Q | 2.727252385542 | 1.4153e-08 | au |
|
| | Orbit Determination Parameters
Additional Information
|
[ hide covariance matrix ]
Orbital Elements at Epoch 2457522.5 (2016-May-14.0) TDB
Reference: JPL 15 (heliocentric ecliptic J2000)
Element | Value | Uncertainty (1-sigma) | Units |
e | .162527895812631 | 5.3085e-08 | |
q | 1.964175507170573 | 1.2013e-07 | au |
tp | 2457282.233517750482 (2015-Sep-16.73351775) | 5.1523e-05 | TDB |
node | 20.38684795603497 | 0.00010225 | deg |
peri | 201.4288425903363 | 0.00010334 | deg |
i | 2.465251559232763 | 5.3428e-06 | deg |
|
| | Orbit Determination Parameters
Additional Information
|
Orbit Covariance (6×6)
|
|
e |
q |
tp |
node |
peri |
i |
e |
2.818034393209381E-15 |
-6.358915792030559E-15 |
-5.112623991152249E-13 |
3.631744954351458E-14 |
-1.106390306356855E-13 |
-3.33199070294838E-15 |
q |
-6.358915792030559E-15 |
1.443149640440758E-14 |
1.107340077036659E-12 |
-8.300217812036605E-14 |
2.411436413683274E-13 |
7.608351241055859E-15 |
tp |
-5.112623991152249E-13 |
1.107340077036659E-12 |
2.654653840847921E-9 |
1.053952178257318E-11 |
7.872633434169693E-10 |
2.57614180354822E-12 |
node |
3.631744954351458E-14 |
-8.300217812036605E-14 |
1.053952178257318E-11 |
1.045473686587838E-8 |
-1.04398187174126E-8 |
-2.097062613050617E-11 |
peri |
-1.106390306356855E-13 |
2.411436413683274E-13 |
7.872633434169693E-10 |
-1.04398187174126E-8 |
1.067939433712114E-8 |
2.162742575097563E-11 |
i |
-3.33199070294838E-15 |
7.608351241055859E-15 |
2.57614180354822E-12 |
-2.097062613050617E-11 |
2.162742575097563E-11 |
2.854589756103957E-11 |
|
Physical Parameter Table
Parameter |
Symbol |
Value |
Units |
Sigma |
Reference |
Notes |
absolute magnitude |
H |
17.1 |
|
n/a |
MPO475548 |
|
|
183702 (2003 YX36) Discovered 2003-Dec-17 by Spacewatch at Kitt Peak |
Reference: 20080420/Numbers.arc | Last Updated: 2008-04-23 |
|
|